Location: �perlecques
(50.8057°N, 2.1521°E)
Time: 20:29:11
(UTC+00:00)

Vanguard 3 - Pass Details

Date: 02 August 2021
Orbit: 510 x 3260 km, 33.3° (Epoch: 17 September)

Event Time Altitude Azimuth Distance (km) Brightness Sun altitude
Rises 21:09:30 0° 264° (W) 6,501 12.3 -12.4°
Reaches altitude 10° 21:13:54 10° 258° (WSW) 5,753 11.8 -12.8°
Maximum altitude 21:30:08 39° 199° (SSW) 4,265 10.5 -14.4°
Enters shadow 21:42:53 18° 147° (SSE) 5,228 10.6 -15.6°
